Regional Weather Roundup
Issued by NWS

Home | Current Version | Previous Version | Text Only | Print | Product List | Glossary Off
Versions: 1 2 3 4 5 6 7 8 9 10 11 12 13 14 15 16 17 18 19 20 21 22 23 24 25 26 27 28 29 30 31 32 33 34 35 36 37 38 39 40 41 42 43 44 45 46 47 48 49 50

000
ASUS43 KFSD 250302
RWRSD

WEATHER ROUNDUP FOR SOUTH DAKOTA
NATIONAL WEATHER SERVICE SIOUX FALLS SD
1000 PM CDT SAT SEP 24 2016

NOTE: "FAIR" INDICATES FEW OR NO CLOUDS BELOW 12,000 FEET WITH NO
SIGNIFICANT WEATHER AND/OR OBSTRUCTIONS TO VISIBILITY.


SDZ001>005-009-010-012>017-250400-
NORTHWEST AND NORTH CENTRAL SOUTH DAKOTA

CITY           SKY/WX    TMP DP  RH WIND       PRES   REMARKS
BUFFALO          N/A     51  48  89 NW43G59   29.83R
FAITH            N/A     50  49  96 W29G35    29.83F
MOBRIDGE       CLEAR     56  45  66 SW8       29.82R
$$

SDZ012>016-024>037-041>051-057-063-072>074-250400-
SOUTHWEST AND SOUTH CENTRAL SOUTH DAKOTA

CITY           SKY/WX    TMP DP  RH WIND       PRES   REMARKS
RAPID CTY ARPT LGT RAIN  50  41  71 W13       30.02R
PIERRE         CLEAR     56  41  57 W14       29.92R
CUSTER         CLOUDY    42  36  79 W15G26    30.07R
ELLSWORTH AFB  LGT RAIN  51  43  74 NW22G28   30.00
PHILIP         PTCLDY    53  40  61 W16       29.96R
PINE RIDGE     PTCLDY    53  41  63 W24G32    30.08R
WINNER         FAIR      63  41  44 W22G30    29.98R
$$

SDZ004>011-016>023-039-040-250400-
NORTHEAST SOUTH DAKOTA

CITY           SKY/WX    TMP DP  RH WIND       PRES   REMARKS
ABERDEEN       CLEAR     61  46  57 S7        29.82S
WATERTOWN      CLOUDY    67  65  93 S8        29.87F
SISSETON         N/A     69  67  93 S12       29.83F
$$

SDZ017-020-022-023-036>040-048>070-250400-
SOUTHEAST SOUTH DAKOTA

CITY           SKY/WX    TMP DP  RH WIND       PRES   REMARKS
SIOUX FALLS    CLOUDY    71  68  90 S7        29.91S
HURON          CLEAR     61  53  75 S8        29.87R
CHAMBERLAIN    CLEAR     66  44  45 W15G21    29.95R
MITCHELL       CLEAR     67  55  65 S7        29.89F
YANKTON        CLOUDY    70  66  88 CALM      29.90R
$$

ABBREVIATIONS USED IN REMARKS
   TC - TEMPERATURE IN CELSIUS
  WCI - WIND CHILL INDEX
   HX - HEAT INDEX
  VSB - VISIBILITY





USA.gov is the U.S. government's official web portal to all federal, state and local government web resources and services.